Flag for Canada Weather past 2 weeks in Red Deer, Alberta, Canada

Now
14 °F

Ice fog.


Feels Like: 0 °F
Forecast: 4 / 15 °F
Wind: 12 mph from Northeast

Location: Red Deer

Current Time: Dec 27, 2014 at 8:17:22 PM

Latest Report: Dec 27, 2014 at 7:49 PM


Visibility: 5 mi

Pressure: 30.07 "Hg

Humidity: 100%

Dew point: 14 °F

Location of Red DeerLocation

Historic Weather in Red Deer — Graph

°F

Red Deer temperature yesterday

Maximum temperature yesterday: 23 °F (at 8:00 PM)
Minimum temperature yesterday: 1 °F (at 7:00 AM)
Average temperature yesterday: 15 °F

Past Weeks' High & Low Weather Summary

 TemperatureHumidityPressure
High37 °F (Dec 21, 4:00 PM)100% (Dec 13, 8:45 AM)30.44 "Hg (Dec 13, 8:45 AM)
Low1 °F (Dec 26, 7:00 AM)59% (Dec 24, 1:00 PM)29.28 "Hg (Dec 21, 5:00 AM)
Average22 °F85%29.99 "Hg
* Reported Dec 12 7:00 PM — Dec 27 7:00 PM, Red Deer, Weather by CustomWeather, © 2014

Note: Actual official high and low records may vary slightly from our data, if they occured in-between our weather recording intervals... More about our weather records

Advertising

Red Deer weather history for previous 24 hours

 ConditionsComfort  
Time TempWeatherWind HumidityBarometerVisibility
7:00 PM
Dec 27
14 °FPassing clouds.9 mph92%30.05 "Hg15 mi
6:00 PM14 °FPassing clouds.3 mph85%30.04 "Hg15 mi
5:00 PM18 °FPassing clouds.7 mph79%30.02 "Hg15 mi
4:00 PM18 °FPartly sunny.5 mph79%30.01 "Hg15 mi
3:00 PM23 °FPartly sunny.No wind68%30.00 "Hg15 mi
2:00 PM23 °FPartly sunny.2 mph68%30.00 "Hg15 mi
1:00 PM23 °FPartly sunny.2 mph68%30.01 "Hg15 mi
12:00 PM19 °FPartly sunny.5 mph79%30.04 "Hg15 mi
11:00 AM19 °FPartly sunny.6 mph79%30.06 "Hg15 mi
10:00 AM16 °FBroken clouds.5 mph86%30.06 "Hg15 mi
9:00 AM16 °FPartly sunny.6 mph86%30.07 "Hg15 mi
8:00 AM14 °FPassing clouds.5 mph85%30.07 "Hg15 mi
7:00 AM18 °FOvercast.No wind86%30.08 "Hg15 mi
6:00 AM19 °FOvercast.8 mph79%30.07 "Hg15 mi
5:00 AM19 °FOvercast.6 mph79%30.08 "Hg15 mi
4:00 AM19 °FOvercast.5 mph79%30.09 "Hg15 mi
3:00 AM19 °FOvercast.5 mph79%30.11 "Hg15 mi
2:00 AM19 °FSnow flurries. Overcast.5 mph86%30.11 "Hg15 mi
1:00 AM19 °FSnow flurries. Overcast.3 mph79%30.12 "Hg15 mi
12:49 AM21 °FSnow flurries. Overcast.3 mph74%30.13 "Hg15 mi
12:00 AM21 °FOvercast.5 mph80%30.14 "Hg15 mi
11:00 PM
Dec 26
23 °FOvercast.3 mph74%30.14 "Hg15 mi
10:00 PM23 °FOvercast.5 mph68%30.15 "Hg15 mi
9:00 PM21 °FOvercast.3 mph80%30.18 "Hg15 mi
8:00 PM23 °FOvercast.9 mph68%30.19 "Hg15 mi
Weather by CustomWeather, © 2014

See weather overviewHow to use our weather pages